マセニー彗星

C/2016 T2 ( Matheny )

English version
Home page
Updated on March 25, 2017

---------------------------------------------------------------------

・ プロフィール

発見日 2016年10月10日
発見光度 18.6等
発見者 Rose G. Matheny (Mount Lemmon Survey)

・ 写真集

・ 軌道要素

Epoch 2017 Jan. 7.0 TT = JDT 2457760.5
T 2016 Dec. 29.10175 TT                                 MPCW
q   1.9078310            (2000.0)            P               Q
z  +0.0098131      Peri.   92.28278     +0.01663968     -0.93560302
 +/-0.0000068      Node   339.09892     -0.25048688     +0.33756204
e   0.9812783      Incl.   81.31140     +0.96797699     +0.10343531
From 156 observations 2016 Oct. 10-2017 Mar. 3, mean residual 0".6.

・ 光度変化

        m1 = 13.0 + 5 logΔ + 10.0 log r

---------------------------------------------------------------------

軌道要素はM.P.E.C. 2017-E59に掲載されたものです。
光度グラフはComet for Windowsで作成したものです。

---------------------------------------------------------------------

Copyright(C) Seiichi Yoshida (comet@aerith.net). All rights reserved.